This is the latest recevied weather packets stored in our database for station/object SAVIL. If no packets are shown the sender has not sent any weather packets the latest 10 day(s).
| Time | Temp. | Humidity | Pressure | Rain* | Wind** | Luminosity | Snow |
|---|---|---|---|---|---|---|---|
| 1777643215 | 17.78° C | 36% | 1013.1 hPa | 0 mm | - | - | - |
| 1777642015 | 17.22° C | 38% | 1013.2 hPa | 0 mm | - | - | - |
| 1777640814 | 17.78° C | 38% | 1013.4 hPa | 0 mm | - | - | - |
| 1777639614 | 17.78° C | 39% | 1013.5 hPa | 0 mm | - | - | - |
| 1777638414 | 17.22° C | 37% | 1013.6 hPa | 0 mm | - | - | - |
| 1777637214 | 17.22° C | 40% | 1013.9 hPa | 0 mm | - | - | - |
| 1777636014 | 16.67° C | 41% | 1014.1 hPa | 0 mm | - | - | - |
| 1777634814 | 16.67° C | 42% | 1014.2 hPa | 0 mm | - | - | - |
| 1777633614 | 16.11° C | 42% | 1014.3 hPa | 0 mm | - | - | - |
| 1777632414 | 15.56° C | 44% | 1014.4 hPa | 0 mm | - | - | - |
| 1777630014 | 15.56° C | 47% | 1014.8 hPa | 0 mm | - | - | - |
| 1777628814 | 15° C | 49% | 1014.9 hPa | 0 mm | - | - | - |
| 1777627614 | 15° C | 50% | 1015 hPa | 0 mm | - | - | - |
| 1777626414 | 14.44° C | 50% | 1015.2 hPa | 0 mm | - | - | - |
| 1777625214 | 15° C | 49% | 1015.3 hPa | 0 mm | - | - | - |
| 1777624014 | 15° C | 53% | 1015.5 hPa | 0 mm | - | - | - |
| 1777622814 | 13.89° C | 54% | 1015.7 hPa | 0 mm | - | - | - |
| 1777621614 | 13.33° C | 57% | 1016 hPa | 0 mm | - | - | - |
| 1777620413 | 13.33° C | 58% | 1016.1 hPa | 0 mm | - | - | - |
| 1777619213 | 12.78° C | 60% | 1016.5 hPa | 0 mm | - | - | - |
| 1777618013 | 12.22° C | 60% | 1016.6 hPa | 0 mm | - | - | - |
| 1777616814 | 12.22° C | 62% | 1016.7 hPa | 0 mm | - | - | - |
| 1777615613 | 11.67° C | 63% | 1016.8 hPa | 0 mm | - | - | - |
| 1777614413 | 11.11° C | 66% | 1017 hPa | 0 mm | - | - | - |
| 1777613213 | 10° C | 69% | 1017 hPa | 0 mm | - | - | - |
* Rain latest hour (hover to see other rain measurements)
** Current wind speed in m/s (hover to see current wind gust speed)